Year,Month,Day,Hour,Minute,Value (Times are PST for temperature in C)
2016,03,18,00,00,2.50
2016,03,18,00,01,2.60
2016,03,18,00,02,2.60
2016,03,18,00,03,2.70
2016,03,18,00,04,2.70
2016,03,18,00,05,2.70
2016,03,18,00,06,2.70
2016,03,18,00,07,2.70
2016,03,18,00,08,2.70
2016,03,18,00,09,2.70
2016,03,18,00,10,2.70
2016,03,18,00,11,2.70
2016,03,18,00,12,2.70
2016,03,18,00,13,2.80
2016,03,18,00,14,2.80
2016,03,18,00,15,2.80
2016,03,18,00,16,2.90
2016,03,18,00,17,2.90
2016,03,18,00,18,2.90
2016,03,18,00,19,2.90
2016,03,18,00,20,2.90
2016,03,18,00,21,2.90
2016,03,18,00,22,2.80
2016,03,18,00,23,2.80
2016,03,18,00,24,2.70
2016,03,18,00,25,2.70
2016,03,18,00,26,2.70
2016,03,18,00,27,2.60
2016,03,18,00,28,2.60
2016,03,18,00,29,2.60
2016,03,18,00,30,2.60
2016,03,18,00,31,2.60
2016,03,18,00,32,2.60
2016,03,18,00,33,2.60
2016,03,18,00,34,2.70
2016,03,18,00,35,2.70
2016,03,18,00,36,2.70
2016,03,18,00,37,2.70
2016,03,18,00,38,2.80
2016,03,18,00,39,2.80
2016,03,18,00,40,2.70
2016,03,18,00,41,2.70
2016,03,18,00,42,2.70
2016,03,18,00,43,2.70
2016,03,18,00,44,2.70
2016,03,18,00,45,2.70
2016,03,18,00,46,2.70
2016,03,18,00,47,2.70
2016,03,18,00,48,2.70
2016,03,18,00,49,2.60
2016,03,18,00,50,2.60
2016,03,18,00,51,2.60
2016,03,18,00,52,2.60
2016,03,18,00,53,2.60
2016,03,18,00,54,2.60
2016,03,18,00,55,2.60
2016,03,18,00,56,2.60
2016,03,18,00,57,2.60
2016,03,18,00,58,2.60
2016,03,18,00,59,2.60
2016,03,18,01,00,2.60
2016,03,18,01,01,2.60
2016,03,18,01,02,2.60
2016,03,18,01,03,2.70
2016,03,18,01,04,2.70
2016,03,18,01,05,2.70
2016,03,18,01,06,2.70
2016,03,18,01,07,2.70
2016,03,18,01,08,2.70
2016,03,18,01,09,2.70
2016,03,18,01,10,2.70
2016,03,18,01,11,2.60
2016,03,18,01,12,2.60
2016,03,18,01,13,2.60
2016,03,18,01,14,2.50
2016,03,18,01,15,2.50
2016,03,18,01,16,2.50
2016,03,18,01,17,2.50
2016,03,18,01,18,2.50
2016,03,18,01,19,2.50
2016,03,18,01,20,2.50
2016,03,18,01,21,2.40
2016,03,18,01,22,2.40
2016,03,18,01,23,2.50
2016,03,18,01,24,2.50
2016,03,18,01,25,2.50
2016,03,18,01,26,2.60
2016,03,18,01,27,2.60
2016,03,18,01,28,2.60
2016,03,18,01,29,2.60
2016,03,18,01,30,2.60
2016,03,18,01,31,2.60
2016,03,18,01,32,2.50
2016,03,18,01,33,2.50
2016,03,18,01,34,2.40
2016,03,18,01,35,2.40
2016,03,18,01,36,2.40
2016,03,18,01,37,2.40
2016,03,18,01,38,2.50
2016,03,18,01,39,2.50
2016,03,18,01,40,2.60
2016,03,18,01,41,2.60
2016,03,18,01,42,2.60
2016,03,18,01,43,2.60
2016,03,18,01,44,2.50
2016,03,18,01,45,2.50
2016,03,18,01,46,2.50
2016,03,18,01,47,2.50
2016,03,18,01,48,2.40
2016,03,18,01,49,2.40
2016,03,18,01,50,2.40
2016,03,18,01,51,2.50
2016,03,18,01,52,2.40
2016,03,18,01,53,2.40
2016,03,18,01,54,2.40
2016,03,18,01,55,2.40
2016,03,18,01,56,2.40
2016,03,18,01,57,2.40
2016,03,18,01,58,2.40
2016,03,18,01,59,2.50
2016,03,18,02,00,2.50
2016,03,18,02,01,2.50
2016,03,18,02,02,2.40
2016,03,18,02,03,2.40
2016,03,18,02,04,2.50
2016,03,18,02,05,2.50
2016,03,18,02,06,2.50
2016,03,18,02,07,2.50
2016,03,18,02,08,2.40
2016,03,18,02,09,2.40
2016,03,18,02,10,2.40
2016,03,18,02,11,2.40
2016,03,18,02,12,2.40
2016,03,18,02,13,2.40
2016,03,18,02,14,2.40
2016,03,18,02,15,2.40
2016,03,18,02,16,2.40
2016,03,18,02,17,2.30
2016,03,18,02,18,2.30
2016,03,18,02,19,2.30
2016,03,18,02,20,2.30
2016,03,18,02,21,2.30
2016,03,18,02,22,2.30
2016,03,18,02,23,2.30
2016,03,18,02,24,2.30
2016,03,18,02,25,2.30
2016,03,18,02,26,2.40
2016,03,18,02,27,2.40
2016,03,18,02,28,2.40
2016,03,18,02,29,2.40
2016,03,18,02,30,2.40
2016,03,18,02,31,2.40
2016,03,18,02,32,2.40
2016,03,18,02,33,2.40
2016,03,18,02,34,2.50
2016,03,18,02,35,2.50
2016,03,18,02,36,2.50
2016,03,18,02,37,2.50
2016,03,18,02,38,2.50
2016,03,18,02,39,2.50
2016,03,18,02,40,2.40
2016,03,18,02,41,2.40
2016,03,18,02,42,2.40
2016,03,18,02,43,2.40
2016,03,18,02,44,2.40
2016,03,18,02,45,2.40
2016,03,18,02,46,2.40
2016,03,18,02,47,2.30
2016,03,18,02,48,2.30
2016,03,18,02,49,2.30
2016,03,18,02,50,2.20
2016,03,18,02,51,2.20
2016,03,18,02,52,2.20
2016,03,18,02,53,2.30
2016,03,18,02,54,2.30
2016,03,18,02,55,2.40
2016,03,18,02,56,2.40
2016,03,18,02,57,2.40
2016,03,18,02,58,2.40
2016,03,18,02,59,2.40
2016,03,18,03,00,2.40
2016,03,18,03,01,2.40
2016,03,18,03,02,2.40
2016,03,18,03,03,2.40
2016,03,18,03,04,2.40
2016,03,18,03,05,2.40
2016,03,18,03,06,2.40
2016,03,18,03,07,2.40
2016,03,18,03,08,2.40
2016,03,18,03,09,2.40
2016,03,18,03,10,2.40
2016,03,18,03,11,2.40
2016,03,18,03,12,2.40
2016,03,18,03,13,2.40
2016,03,18,03,14,2.40
2016,03,18,03,15,2.40
2016,03,18,03,16,2.30
2016,03,18,03,17,2.30
2016,03,18,03,18,2.30
2016,03,18,03,19,2.30
2016,03,18,03,20,2.30
2016,03,18,03,21,2.30
2016,03,18,03,22,2.30
2016,03,18,03,23,2.30
2016,03,18,03,24,2.30
2016,03,18,03,25,2.20
2016,03,18,03,26,2.20
2016,03,18,03,27,2.20
2016,03,18,03,28,2.20
2016,03,18,03,29,2.20
2016,03,18,03,30,2.20
2016,03,18,03,31,2.30
2016,03,18,03,32,2.30
2016,03,18,03,33,2.30
2016,03,18,03,34,2.30
2016,03,18,03,35,2.30
2016,03,18,03,36,2.30
2016,03,18,03,37,2.30
2016,03,18,03,38,2.30
2016,03,18,03,39,2.30
2016,03,18,03,40,2.30
2016,03,18,03,41,2.30
2016,03,18,03,42,2.30
2016,03,18,03,43,2.30
2016,03,18,03,44,2.30
2016,03,18,03,45,2.30
2016,03,18,03,46,2.30
2016,03,18,03,47,2.30
2016,03,18,03,48,2.30
2016,03,18,03,49,2.30
2016,03,18,03,50,2.30
2016,03,18,03,51,2.30
2016,03,18,03,52,2.30
2016,03,18,03,53,2.30
2016,03,18,03,54,2.30
2016,03,18,03,55,2.30
2016,03,18,03,56,2.30
2016,03,18,03,57,2.30
2016,03,18,03,58,2.30
2016,03,18,03,59,2.30
2016,03,18,04,00,2.30
2016,03,18,04,01,2.30
2016,03,18,04,02,2.30
2016,03,18,04,03,2.30
2016,03,18,04,04,2.30
2016,03,18,04,05,2.30
2016,03,18,04,06,2.30
2016,03,18,04,07,2.30
2016,03,18,04,08,2.30
2016,03,18,04,09,2.20
2016,03,18,04,10,2.30
2016,03,18,04,11,2.30
2016,03,18,04,12,2.30
2016,03,18,04,13,2.30
2016,03,18,04,14,2.40
2016,03,18,04,15,2.40
2016,03,18,04,16,2.40
2016,03,18,04,17,2.40
2016,03,18,04,18,2.40
2016,03,18,04,19,2.40
2016,03,18,04,20,2.40
2016,03,18,04,21,2.40
2016,03,18,04,22,2.40
2016,03,18,04,23,2.40
2016,03,18,04,24,2.30
2016,03,18,04,25,2.30
2016,03,18,04,26,2.30
2016,03,18,04,27,2.30
2016,03,18,04,28,2.20
2016,03,18,04,29,2.20
2016,03,18,04,30,2.20
2016,03,18,04,31,2.20
2016,03,18,04,32,2.20
2016,03,18,04,33,2.20
2016,03,18,04,34,2.20
2016,03,18,04,35,2.20
2016,03,18,04,36,2.20
2016,03,18,04,37,2.20
2016,03,18,04,38,2.30
2016,03,18,04,39,2.30
2016,03,18,04,40,2.30
2016,03,18,04,41,2.20
2016,03,18,04,42,2.20
2016,03,18,04,43,2.20
2016,03,18,04,44,2.20
2016,03,18,04,45,2.20
2016,03,18,04,46,2.20
2016,03,18,04,47,2.20
2016,03,18,04,48,2.20
2016,03,18,04,49,2.20
2016,03,18,04,50,2.20
2016,03,18,04,51,2.10
2016,03,18,04,52,2.10
2016,03,18,04,53,2.10
2016,03,18,04,54,2.20
2016,03,18,04,55,2.20
2016,03,18,04,56,2.20
2016,03,18,04,57,2.30
2016,03,18,04,58,2.30
2016,03,18,04,59,2.40
2016,03,18,05,00,2.40
2016,03,18,05,01,2.40
2016,03,18,05,02,2.40
2016,03,18,05,03,2.40
2016,03,18,05,04,2.40
2016,03,18,05,05,2.40
2016,03,18,05,06,2.40
2016,03,18,05,07,2.40
2016,03,18,05,08,2.40
2016,03,18,05,09,2.40
2016,03,18,05,10,2.40
2016,03,18,05,11,2.40
2016,03,18,05,12,2.40
2016,03,18,05,13,2.40
2016,03,18,05,14,2.40
2016,03,18,05,15,2.40
2016,03,18,05,16,2.40
2016,03,18,05,17,2.40
2016,03,18,05,18,2.30
2016,03,18,05,19,2.30
2016,03,18,05,20,2.30
2016,03,18,05,21,2.30
2016,03,18,05,22,2.30
2016,03,18,05,23,2.30
2016,03,18,05,24,2.30
2016,03,18,05,25,2.30
2016,03,18,05,26,2.30
2016,03,18,05,27,2.30
2016,03,18,05,28,2.20
2016,03,18,05,29,2.20
2016,03,18,05,30,2.20
2016,03,18,05,31,2.20
2016,03,18,05,32,2.20
2016,03,18,05,33,2.20
2016,03,18,05,34,2.20
2016,03,18,05,35,2.20
2016,03,18,05,36,2.20
2016,03,18,05,37,2.20
2016,03,18,05,38,2.20
2016,03,18,05,39,2.10
2016,03,18,05,40,2.10
2016,03,18,05,41,2.10
2016,03,18,05,42,2.10
2016,03,18,05,43,2.10
2016,03,18,05,44,2.10
2016,03,18,05,45,2.00
2016,03,18,05,46,2.00
2016,03,18,05,47,2.00
2016,03,18,05,48,2.00
2016,03,18,05,49,2.00
2016,03,18,05,50,1.90
2016,03,18,05,51,1.90
2016,03,18,05,52,1.80
2016,03,18,05,53,1.80
2016,03,18,05,54,1.80
2016,03,18,05,55,1.80
2016,03,18,05,56,1.80
2016,03,18,05,57,1.80
2016,03,18,05,58,1.80
2016,03,18,05,59,1.80
2016,03,18,06,00,1.90
2016,03,18,06,01,1.90
2016,03,18,06,02,1.90
2016,03,18,06,03,1.90
2016,03,18,06,04,1.90
2016,03,18,06,05,1.90
2016,03,18,06,06,1.90
2016,03,18,06,07,1.90
2016,03,18,06,08,1.90
2016,03,18,06,09,2.00
2016,03,18,06,10,2.00
2016,03,18,06,11,2.00
2016,03,18,06,12,2.00
2016,03,18,06,13,2.00
2016,03,18,06,14,2.00
2016,03,18,06,15,2.00
2016,03,18,06,16,1.90
2016,03,18,06,17,2.00
2016,03,18,06,18,2.00
2016,03,18,06,19,2.00
2016,03,18,06,20,2.10
2016,03,18,06,21,2.10
2016,03,18,06,22,2.10
2016,03,18,06,23,2.10
2016,03,18,06,24,2.10
2016,03,18,06,25,2.10
2016,03,18,06,26,2.00
2016,03,18,06,27,2.00
2016,03,18,06,28,2.00
2016,03,18,06,29,1.90
2016,03,18,06,30,1.90
2016,03,18,06,31,1.90
2016,03,18,06,32,1.80
2016,03,18,06,33,1.80
2016,03,18,06,34,1.80
2016,03,18,06,35,1.80
2016,03,18,06,36,1.70
2016,03,18,06,37,1.70
2016,03,18,06,38,1.70
2016,03,18,06,39,1.70
2016,03,18,06,40,1.70
2016,03,18,06,41,1.70
2016,03,18,06,42,1.60
2016,03,18,06,43,1.60
2016,03,18,06,44,1.60
2016,03,18,06,45,1.60
2016,03,18,06,46,1.50
2016,03,18,06,47,1.50
2016,03,18,06,48,1.50
2016,03,18,06,49,1.40
2016,03,18,06,50,1.40
2016,03,18,06,51,1.50
2016,03,18,06,52,1.50
2016,03,18,06,53,1.60
2016,03,18,06,54,1.60
2016,03,18,06,55,1.60
2016,03,18,06,56,1.60
2016,03,18,06,57,1.60
2016,03,18,06,58,1.70
2016,03,18,06,59,1.70
2016,03,18,07,00,1.80
2016,03,18,07,01,1.80
2016,03,18,07,02,1.90
2016,03,18,07,03,1.90
2016,03,18,07,04,1.90
2016,03,18,07,05,1.90
2016,03,18,07,06,2.00
2016,03,18,07,07,2.00
2016,03,18,07,08,2.00
2016,03,18,07,09,1.90
2016,03,18,07,10,1.90
2016,03,18,07,11,1.80
2016,03,18,07,12,1.80
2016,03,18,07,13,1.70
2016,03,18,07,14,1.70
2016,03,18,07,15,1.70
2016,03,18,07,16,1.60
2016,03,18,07,17,1.60
2016,03,18,07,18,1.50
2016,03,18,07,19,1.50
2016,03,18,07,20,1.50
2016,03,18,07,21,1.40
2016,03,18,07,22,1.40
2016,03,18,07,23,1.40
2016,03,18,07,24,1.40
2016,03,18,07,25,1.30
2016,03,18,07,26,1.30
2016,03,18,07,27,1.30
2016,03,18,07,28,1.30
2016,03,18,07,29,1.30
2016,03,18,07,30,1.20
2016,03,18,07,31,1.20
2016,03,18,07,32,1.20
2016,03,18,07,33,1.20
2016,03,18,07,34,1.20
2016,03,18,07,35,1.20
2016,03,18,07,36,1.10
2016,03,18,07,37,1.10
2016,03,18,07,38,1.10
2016,03,18,07,39,1.10
2016,03,18,07,40,1.10
2016,03,18,07,41,1.10
2016,03,18,07,42,1.10
2016,03,18,07,43,1.10
2016,03,18,07,44,1.00
2016,03,18,07,45,1.00
2016,03,18,07,46,1.00
2016,03,18,07,47,1.00
2016,03,18,07,48,1.00
2016,03,18,07,49,1.00
2016,03,18,07,50,0.90
2016,03,18,07,51,0.90
2016,03,18,07,52,0.90
2016,03,18,07,53,0.90
2016,03,18,07,54,0.90
2016,03,18,07,55,0.90
2016,03,18,07,56,0.90
2016,03,18,07,57,0.90
2016,03,18,07,58,1.00
2016,03,18,07,59,1.00
2016,03,18,08,00,1.10
2016,03,18,08,01,1.10
2016,03,18,08,02,1.10
2016,03,18,08,03,1.20
2016,03,18,08,04,1.30
2016,03,18,08,05,1.30
2016,03,18,08,06,1.40
2016,03,18,08,07,1.50
2016,03,18,08,08,1.60
2016,03,18,08,09,1.60
2016,03,18,08,10,1.60
2016,03,18,08,11,1.70
2016,03,18,08,12,1.70
2016,03,18,08,13,1.70
2016,03,18,08,14,1.70
2016,03,18,08,15,1.80
2016,03,18,08,16,1.80
2016,03,18,08,17,1.80
2016,03,18,08,18,1.90
2016,03,18,08,19,2.00
2016,03,18,08,20,2.00
2016,03,18,08,21,2.10
2016,03,18,08,22,2.10
2016,03,18,08,23,2.20
2016,03,18,08,24,2.20
2016,03,18,08,25,2.20
2016,03,18,08,26,2.30
2016,03,18,08,27,2.30
2016,03,18,08,28,2.30
2016,03,18,08,29,2.30
2016,03,18,08,30,2.40
2016,03,18,08,31,2.40
2016,03,18,08,32,2.50
2016,03,18,08,33,2.50
2016,03,18,08,34,2.60
2016,03,18,08,35,2.60
2016,03,18,08,36,2.60
2016,03,18,08,37,2.60
2016,03,18,08,38,2.60
2016,03,18,08,39,2.60
2016,03,18,08,40,2.70
2016,03,18,08,41,2.70
2016,03,18,08,42,2.70
2016,03,18,08,43,2.70
2016,03,18,08,44,2.80
2016,03,18,08,45,2.80
2016,03,18,08,46,2.80
2016,03,18,08,47,2.90
2016,03,18,08,48,2.90
2016,03,18,08,49,3.00
2016,03,18,08,50,3.00
2016,03,18,08,51,3.10
2016,03,18,08,52,3.20
2016,03,18,08,53,3.20
2016,03,18,08,54,3.30
2016,03,18,08,55,3.30
2016,03,18,08,56,3.40
2016,03,18,08,57,3.40
2016,03,18,08,58,3.50
2016,03,18,08,59,3.60
2016,03,18,09,00,3.60
2016,03,18,09,01,3.60
2016,03,18,09,02,3.60
2016,03,18,09,03,3.70
2016,03,18,09,04,3.70
2016,03,18,09,05,3.70
2016,03,18,09,06,3.70
2016,03,18,09,07,3.70
2016,03,18,09,08,3.80
2016,03,18,09,09,3.80
2016,03,18,09,10,3.90
2016,03,18,09,11,3.90
2016,03,18,09,12,3.90
2016,03,18,09,13,4.00
2016,03,18,09,14,4.00
2016,03,18,09,15,4.00
2016,03,18,09,16,4.10
2016,03,18,09,17,4.10
2016,03,18,09,18,4.10
2016,03,18,09,19,4.10
2016,03,18,09,20,4.10
2016,03,18,09,21,4.20
2016,03,18,09,22,4.20
2016,03,18,09,23,4.20
2016,03,18,09,24,4.20
2016,03,18,09,25,4.30
2016,03,18,09,26,4.30
2016,03,18,09,27,4.30
2016,03,18,09,28,4.30
2016,03,18,09,29,4.30
2016,03,18,09,30,4.30
2016,03,18,09,31,4.40
2016,03,18,09,32,4.40
2016,03,18,09,33,4.40
2016,03,18,09,34,4.40
2016,03,18,09,35,4.40
2016,03,18,09,36,4.40
2016,03,18,09,37,4.50
2016,03,18,09,38,4.50
2016,03,18,09,39,4.50
2016,03,18,09,40,4.60
2016,03,18,09,41,4.60
2016,03,18,09,42,4.60
2016,03,18,09,43,4.60
2016,03,18,09,44,4.60
2016,03,18,09,45,4.60
2016,03,18,09,46,4.70
2016,03,18,09,47,4.80
2016,03,18,09,48,5.00
2016,03,18,09,49,5.20
2016,03,18,09,50,5.30
2016,03,18,09,51,5.50
2016,03,18,09,52,5.60
2016,03,18,09,53,5.80
2016,03,18,09,54,5.80
2016,03,18,09,55,5.90
2016,03,18,09,56,5.90
2016,03,18,09,57,6.00
2016,03,18,09,58,6.00
2016,03,18,09,59,6.00
2016,03,18,10,00,6.10
2016,03,18,10,01,6.20
2016,03,18,10,02,6.30
2016,03,18,10,03,6.60
2016,03,18,10,04,6.80
2016,03,18,10,05,7.00
2016,03,18,10,06,7.20
2016,03,18,10,07,7.40
2016,03,18,10,08,7.50
2016,03,18,10,09,7.60
2016,03,18,10,10,7.50
2016,03,18,10,11,7.50
2016,03,18,10,12,7.50
2016,03,18,10,13,7.60
2016,03,18,10,14,7.70
2016,03,18,10,15,7.80
2016,03,18,10,16,7.80
2016,03,18,10,17,7.80
2016,03,18,10,18,7.90
2016,03,18,10,19,8.00
2016,03,18,10,20,8.10
2016,03,18,10,21,8.10
2016,03,18,10,22,8.10
2016,03,18,10,23,8.10
2016,03,18,10,24,8.10
2016,03,18,10,25,8.20
2016,03,18,10,26,8.10
2016,03,18,10,27,8.10
2016,03,18,10,28,8.10
2016,03,18,10,29,8.00
2016,03,18,10,30,7.90
2016,03,18,10,31,7.80
2016,03,18,10,32,7.80
2016,03,18,10,33,7.70
2016,03,18,10,34,7.70
2016,03,18,10,35,7.70
2016,03,18,10,36,7.80
2016,03,18,10,37,7.80
2016,03,18,10,38,7.80
2016,03,18,10,39,7.80
2016,03,18,10,40,7.80
2016,03,18,10,41,7.90
2016,03,18,10,42,7.90
2016,03,18,10,43,7.90
2016,03,18,10,44,8.00
2016,03,18,10,45,8.20
2016,03,18,10,46,8.30
2016,03,18,10,47,8.40
2016,03,18,10,48,8.50
2016,03,18,10,49,8.60
2016,03,18,10,50,8.80
2016,03,18,10,51,8.80
2016,03,18,10,52,8.90
2016,03,18,10,53,8.90
2016,03,18,10,54,8.90
2016,03,18,10,55,9.00
2016,03,18,10,56,9.00
2016,03,18,10,57,9.00
2016,03,18,10,58,9.00
2016,03,18,10,59,9.10
2016,03,18,11,00,9.20
2016,03,18,11,01,9.30
2016,03,18,11,02,9.30
2016,03,18,11,03,9.30
2016,03,18,11,04,9.40
2016,03,18,11,05,9.30
2016,03,18,11,06,9.40
2016,03,18,11,07,9.40
2016,03,18,11,08,9.30
2016,03,18,11,09,9.30
2016,03,18,11,10,9.30
2016,03,18,11,11,9.40
2016,03,18,11,12,9.60
2016,03,18,11,13,9.60
2016,03,18,11,14,9.70
2016,03,18,11,15,9.80
2016,03,18,11,16,9.70
2016,03,18,11,17,9.70
2016,03,18,11,18,9.60
2016,03,18,11,19,9.50
2016,03,18,11,20,9.50
2016,03,18,11,21,9.40
2016,03,18,11,22,9.40
2016,03,18,11,23,9.30
2016,03,18,11,24,9.30
2016,03,18,11,25,9.20
2016,03,18,11,26,9.00
2016,03,18,11,27,8.90
2016,03,18,11,28,8.90
2016,03,18,11,29,8.90
2016,03,18,11,30,8.80
2016,03,18,11,31,8.80
2016,03,18,11,32,8.80
2016,03,18,11,33,8.80
2016,03,18,11,34,8.80
2016,03,18,11,35,8.80
2016,03,18,11,36,8.90
2016,03,18,11,37,8.90
2016,03,18,11,38,9.00
2016,03,18,11,39,9.00
2016,03,18,11,40,9.00
2016,03,18,11,41,9.10
2016,03,18,11,42,9.10
2016,03,18,11,43,9.20
2016,03,18,11,44,9.20
2016,03,18,11,45,9.30
2016,03,18,11,46,9.30
2016,03,18,11,47,9.30
2016,03,18,11,48,9.40
2016,03,18,11,49,9.50
2016,03,18,11,50,9.50
2016,03,18,11,51,9.60
2016,03,18,11,52,9.70
2016,03,18,11,53,9.70
2016,03,18,11,54,9.80
2016,03,18,11,55,10.00
2016,03,18,11,56,10.10
2016,03,18,11,57,10.20
2016,03,18,11,58,10.20
2016,03,18,11,59,10.20
2016,03,18,12,00,10.20
2016,03,18,12,01,10.30
2016,03,18,12,02,10.30
2016,03,18,12,03,10.30
2016,03,18,12,04,10.50
2016,03,18,12,05,10.60
2016,03,18,12,06,10.70
2016,03,18,12,07,10.80
2016,03,18,12,08,10.90
2016,03,18,12,09,11.00
2016,03,18,12,10,11.10
2016,03,18,12,11,11.30
2016,03,18,12,12,11.40
2016,03,18,12,13,11.50
2016,03,18,12,14,11.60
2016,03,18,12,15,11.60
2016,03,18,12,16,11.70
2016,03,18,12,17,11.70
2016,03,18,12,18,11.70
2016,03,18,12,19,11.70
2016,03,18,12,20,11.70
2016,03,18,12,21,11.70
2016,03,18,12,22,11.70
2016,03,18,12,23,11.70
2016,03,18,12,24,11.80
2016,03,18,12,25,11.80
2016,03,18,12,26,11.90
2016,03,18,12,27,12.00
2016,03,18,12,28,12.00
2016,03,18,12,29,12.10
2016,03,18,12,30,12.10
2016,03,18,12,31,12.20
2016,03,18,12,32,12.20
2016,03,18,12,33,12.20
2016,03,18,12,34,12.20
2016,03,18,12,35,12.30
2016,03,18,12,36,12.30
2016,03,18,12,37,12.40
2016,03,18,12,38,12.50
2016,03,18,12,39,12.50
2016,03,18,12,40,12.60
2016,03,18,12,41,12.60
2016,03,18,12,42,12.70
2016,03,18,12,43,12.70
2016,03,18,12,44,12.70
2016,03,18,12,45,12.70
2016,03,18,12,46,12.70
2016,03,18,12,47,12.80
2016,03,18,12,48,12.80
2016,03,18,12,49,12.90
2016,03,18,12,50,12.90
2016,03,18,12,51,12.90
2016,03,18,12,52,12.90
2016,03,18,12,53,12.90
2016,03,18,12,54,12.90
2016,03,18,12,55,12.80
2016,03,18,12,56,12.80
2016,03,18,12,57,12.80
2016,03,18,12,58,12.80
2016,03,18,12,59,12.80
2016,03,18,13,00,12.80
2016,03,18,13,01,12.80
2016,03,18,13,02,12.80
2016,03,18,13,03,12.80
2016,03,18,13,04,12.80
2016,03,18,13,05,12.90
2016,03,18,13,06,12.90
2016,03,18,13,07,13.00
2016,03,18,13,08,13.10
2016,03,18,13,09,13.10
2016,03,18,13,10,13.20
2016,03,18,13,11,13.20
2016,03,18,13,12,13.30
2016,03,18,13,13,13.30
2016,03,18,13,14,13.30
2016,03,18,13,15,13.40
2016,03,18,13,16,13.40
2016,03,18,13,17,13.40
2016,03,18,13,18,13.50
2016,03,18,13,19,13.50
2016,03,18,13,20,13.60
2016,03,18,13,21,13.60
2016,03,18,13,22,13.70
2016,03,18,13,23,13.70
2016,03,18,13,24,13.70
2016,03,18,13,25,13.80
2016,03,18,13,26,13.80
2016,03,18,13,27,13.90
2016,03,18,13,28,14.00
2016,03,18,13,29,14.00
2016,03,18,13,30,14.10
2016,03,18,13,31,14.10
2016,03,18,13,32,14.10
2016,03,18,13,33,14.20
2016,03,18,13,34,14.20
2016,03,18,13,35,14.30
2016,03,18,13,36,14.30
2016,03,18,13,37,14.30
2016,03,18,13,38,14.30
2016,03,18,13,39,14.40
2016,03,18,13,40,14.40
2016,03,18,13,41,14.40
2016,03,18,13,42,14.40
2016,03,18,13,43,14.40
2016,03,18,13,44,14.40
2016,03,18,13,45,14.40
2016,03,18,13,46,14.40
2016,03,18,13,47,14.40
2016,03,18,13,48,14.40
2016,03,18,13,49,14.40
2016,03,18,13,50,14.40
2016,03,18,13,51,14.50
2016,03,18,13,52,14.50
2016,03,18,13,53,14.60
2016,03,18,13,54,14.60
2016,03,18,13,55,14.60
2016,03,18,13,56,14.60
2016,03,18,13,57,14.60
2016,03,18,13,58,14.60
2016,03,18,13,59,14.60
2016,03,18,14,00,14.60
2016,03,18,14,01,14.60
2016,03,18,14,02,14.60
2016,03,18,14,03,14.60
2016,03,18,14,04,14.60
2016,03,18,14,05,14.60
2016,03,18,14,06,14.60
2016,03,18,14,07,14.60
2016,03,18,14,08,14.60
2016,03,18,14,09,14.60
2016,03,18,14,10,14.60
2016,03,18,14,11,14.60
2016,03,18,14,12,14.60
2016,03,18,14,13,14.60
2016,03,18,14,14,14.60
2016,03,18,14,15,14.60
2016,03,18,14,16,14.60
2016,03,18,14,17,14.60
2016,03,18,14,18,14.60
2016,03,18,14,19,14.50
2016,03,18,14,20,14.60
2016,03,18,14,21,14.60
2016,03,18,14,22,14.60
2016,03,18,14,23,14.50
2016,03,18,14,24,14.60
2016,03,18,14,25,14.60
2016,03,18,14,26,14.60
2016,03,18,14,27,14.60
2016,03,18,14,28,14.60
2016,03,18,14,29,14.60
2016,03,18,14,30,14.60
2016,03,18,14,31,14.60
2016,03,18,14,32,14.70
2016,03,18,14,33,14.80
2016,03,18,14,34,15.00
2016,03,18,14,35,15.10
2016,03,18,14,36,15.10
2016,03,18,14,37,15.30
2016,03,18,14,38,15.40
2016,03,18,14,39,15.50
2016,03,18,14,40,15.60
2016,03,18,14,41,15.70
2016,03,18,14,42,15.70
2016,03,18,14,43,15.80
2016,03,18,14,44,15.80
2016,03,18,14,45,15.80
2016,03,18,14,46,15.80
2016,03,18,14,47,15.70
2016,03,18,14,48,15.70
2016,03,18,14,49,15.70
2016,03,18,14,50,15.70
2016,03,18,14,51,15.70
2016,03,18,14,52,15.70
2016,03,18,14,53,15.70
2016,03,18,14,54,15.70
2016,03,18,14,55,15.70
2016,03,18,14,56,15.70
2016,03,18,14,57,15.70
2016,03,18,14,58,15.70
2016,03,18,14,59,15.70
2016,03,18,15,00,15.60
2016,03,18,15,01,15.60
2016,03,18,15,02,15.60
2016,03,18,15,03,15.60
2016,03,18,15,04,15.60
2016,03,18,15,05,15.60
2016,03,18,15,06,15.70
2016,03,18,15,07,15.70
2016,03,18,15,08,15.70
2016,03,18,15,09,15.80
2016,03,18,15,10,15.80
2016,03,18,15,11,15.80
2016,03,18,15,12,15.80
2016,03,18,15,13,15.80
2016,03,18,15,14,15.80
2016,03,18,15,15,15.80
2016,03,18,15,16,15.80
2016,03,18,15,17,15.90
2016,03,18,15,18,15.90
2016,03,18,15,19,15.90
2016,03,18,15,20,15.80
2016,03,18,15,21,15.60
2016,03,18,15,22,15.50
2016,03,18,15,23,15.40
2016,03,18,15,24,15.20
2016,03,18,15,25,15.00
2016,03,18,15,26,14.90
2016,03,18,15,27,14.70
2016,03,18,15,28,14.60
2016,03,18,15,29,14.60
2016,03,18,15,30,14.50
2016,03,18,15,31,14.50
2016,03,18,15,32,14.50
2016,03,18,15,33,14.50
2016,03,18,15,34,14.50
2016,03,18,15,35,14.40
2016,03,18,15,36,14.40
2016,03,18,15,37,14.40
2016,03,18,15,38,14.30
2016,03,18,15,39,14.30
2016,03,18,15,40,14.20
2016,03,18,15,41,14.10
2016,03,18,15,42,14.00
2016,03,18,15,43,13.90
2016,03,18,15,44,13.90
2016,03,18,15,45,13.80
2016,03,18,15,46,13.70
2016,03,18,15,47,13.70
2016,03,18,15,48,13.60
2016,03,18,15,49,13.60
2016,03,18,15,50,13.50
2016,03,18,15,51,13.40
2016,03,18,15,52,13.30
2016,03,18,15,53,13.30
2016,03,18,15,54,13.30
2016,03,18,15,55,13.30
2016,03,18,15,56,13.30
2016,03,18,15,57,13.30
2016,03,18,15,58,13.40
2016,03,18,15,59,13.40
2016,03,18,16,00,13.50
2016,03,18,16,01,13.60
2016,03,18,16,02,13.60
2016,03,18,16,03,13.70
2016,03,18,16,04,13.70
2016,03,18,16,05,13.80
2016,03,18,16,06,13.80
2016,03,18,16,07,13.80
2016,03,18,16,08,13.80
2016,03,18,16,09,13.80
2016,03,18,16,10,13.80
2016,03,18,16,11,13.80
2016,03,18,16,12,13.80
2016,03,18,16,13,13.70
2016,03,18,16,14,13.70
2016,03,18,16,15,13.70
2016,03,18,16,16,13.70
2016,03,18,16,17,13.80
2016,03,18,16,18,13.80
2016,03,18,16,19,13.80
2016,03,18,16,20,13.80
2016,03,18,16,21,13.90
2016,03,18,16,22,13.90
2016,03,18,16,23,14.00
2016,03,18,16,24,14.00
2016,03,18,16,25,14.10
2016,03,18,16,26,14.10
2016,03,18,16,27,14.10
2016,03,18,16,28,14.10
2016,03,18,16,29,14.10
2016,03,18,16,30,14.10
2016,03,18,16,31,14.10
2016,03,18,16,32,14.00
2016,03,18,16,33,14.00
2016,03,18,16,34,13.90
2016,03,18,16,35,13.90
2016,03,18,16,36,13.90
2016,03,18,16,37,13.80
2016,03,18,16,38,13.80
2016,03,18,16,39,13.70
2016,03,18,16,40,13.60
2016,03,18,16,41,13.50
2016,03,18,16,42,13.40
2016,03,18,16,43,13.40
2016,03,18,16,44,13.30
2016,03,18,16,45,13.20
2016,03,18,16,46,13.10
2016,03,18,16,47,13.10
2016,03,18,16,48,13.00
2016,03,18,16,49,13.00
2016,03,18,16,50,12.90
2016,03,18,16,51,12.80
2016,03,18,16,52,12.80
2016,03,18,16,53,12.80
2016,03,18,16,54,12.80
2016,03,18,16,55,12.80
2016,03,18,16,56,12.80
2016,03,18,16,57,12.80
2016,03,18,16,58,12.70
2016,03,18,16,59,12.70
2016,03,18,17,00,12.70
2016,03,18,17,01,12.70
2016,03,18,17,02,12.70
2016,03,18,17,03,12.60
2016,03,18,17,04,12.60
2016,03,18,17,05,12.60
2016,03,18,17,06,12.50
2016,03,18,17,07,12.50
2016,03,18,17,08,12.40
2016,03,18,17,09,12.30
2016,03,18,17,10,12.30
2016,03,18,17,11,12.30
2016,03,18,17,12,12.20
2016,03,18,17,13,12.20
2016,03,18,17,14,12.20
2016,03,18,17,15,12.20
2016,03,18,17,16,12.20
2016,03,18,17,17,12.10
2016,03,18,17,18,12.10
2016,03,18,17,19,12.10
2016,03,18,17,20,12.00
2016,03,18,17,21,12.00
2016,03,18,17,22,11.90
2016,03,18,17,23,11.90
2016,03,18,17,24,11.80
2016,03,18,17,25,11.80
2016,03,18,17,26,11.80
2016,03,18,17,27,11.70
2016,03,18,17,28,11.70
2016,03,18,17,29,11.70
2016,03,18,17,30,11.60
2016,03,18,17,31,11.60
2016,03,18,17,32,11.60
2016,03,18,17,33,11.50
2016,03,18,17,34,11.50
2016,03,18,17,35,11.40
2016,03,18,17,36,11.40
2016,03,18,17,37,11.40
2016,03,18,17,38,11.30
2016,03,18,17,39,11.30
2016,03,18,17,40,11.30
2016,03,18,17,41,11.30
2016,03,18,17,42,11.30
2016,03,18,17,43,11.30
2016,03,18,17,44,11.30
2016,03,18,17,45,11.30
2016,03,18,17,46,11.30
2016,03,18,17,47,11.30
2016,03,18,17,48,11.30
2016,03,18,17,49,11.30
2016,03,18,17,50,11.40